Skip Page Navigation
NASA JPL Caltech
NASA Logo - Jet Propulsion Laboratory + View the NASA Portal
+ Center for Near-Earth Object Studies
JPL Home Earth Solar System Stars & Galaxies Technology
JPL Solar System Dynamics
BODIES ORBITS EPHEMERIDES TOOLS PHYSICAL DATA DISCOVERY FAQ SITE MAP
JPL Small-Body Database Browser
Search: [ help ]  
115080 (2003 SH3)
Classification: Main-belt Asteroid          SPK-ID: 2115080
Ephemeris | Orbit Diagram | Orbital Elements | Mission Design | Physical Parameters | Discovery Circumstances ]

[ show orbit diagram ]
Orbital Elements at Epoch 2459200.5 (2020-Dec-17.0) TDB
Reference: JPL 21 (heliocentric ecliptic J2000)
 Element Value Uncertainty (1-sigma)   Units 
e .08787377805604642 4.254e-08  
a 2.789281526139805 1.6853e-08 au
q 2.544176820375965 1.1485e-07 au
i 2.896803914778737 4.6796e-06 deg
node 330.4711066560976 9.7722e-05 deg
peri 102.3763488206052 0.00010263 deg
M 194.3129470818693 3.3363e-05 deg
tp 2459983.610460148931
(2023-Feb-08.11046015)
0.00016119 TDB
period 1701.519585799605
4.66
1.5421e-05
4.222e-08
d
yr
n .2115755839688575 1.9175e-09 deg/d
Q 3.034386231903644 1.8334e-08 au
  Orbit Determination Parameters
   # obs. used (total)      723  
   data-arc span      7989 days (21.87 yr)  
   first obs. used      1998-08-31  
   last obs. used      2020-07-15  
   planetary ephem.      DE441  
   SB-pert. ephem.      SB441-N16  
   condition code      0  
   norm. resid. RMS      .55426  
   source      ORB  
   producer      Otto Matic  
   solution date      2021-Apr-13 16:41:57  

Additional Information
 Earth MOID = 1.56041 au 
 Jupiter MOID = 2.17301 au 
 T_jup = 3.322 
[ show covariance matrix ]

Ephemeris | Orbit Diagram | Orbital Elements | Mission Design | Physical Parameters | Discovery Circumstances ]

Physical Parameter Table
Parameter Symbol Value Units Sigma Reference Notes
absolute magnitude H 15.31   n/a E2021B55  
diameter diameter 3.321 km 0.443 urn:nasa:pds:neowise_diameters_albedos::2.0[mainbelt] (http://adsabs.harvard.edu/abs/2011ApJ...741...68M)  
geometric albedo albedo 0.146   0.048 urn:nasa:pds:neowise_diameters_albedos::2.0[mainbelt] (http://adsabs.harvard.edu/abs/2011ApJ...741...68M)  

115080 (2003 SH3)          Discovered 2003-Sep-16 by NEAT at Palomar
Reference: 20051019/Numbers.arcLast Updated: 2005-10-26

Alternate Designations
 2003 SH3 = 2001 FW190 
Ephemeris | Orbit Diagram | Orbital Elements | Mission Design | Physical Parameters | Discovery Circumstances ]
ABOUT SSD CREDITS/AWARDS PRIVACY/COPYRIGHT GLOSSARY LINKS
FirstGov 2021-May-13 22:35 UT
(server date/time)  
NASA Home Page
Site Manager:   Ryan S. Park
Webmaster  Alan B. Chamberlin